This is the latest recevied weather packets stored in our database for station/object WB4ROX. If no packets are shown the sender has not sent any weather packets the latest 10 day(s).
| Time | Temp. | Humidity | Pressure | Rain* | Wind** | Luminosity | Snow |
|---|---|---|---|---|---|---|---|
| 1777815615 | 1.11° C | 62% | 1019.2 hPa | 0 mm | - | 428 W/m² | - |
| 1777815312 | 0.56° C | 63% | 1019 hPa | 0 mm | - | 417 W/m² | - |
| 1777815009 | 0.56° C | 62% | 1019 hPa | 0 mm | - | 397 W/m² | - |
| 1777814705 | 0.56° C | 63% | 1019 hPa | 0 mm | - | 380 W/m² | - |
| 1777814401 | 0° C | 66% | 1019 hPa | 0 mm | - | 358 W/m² | - |
| 1777814099 | 0° C | 66% | 1019 hPa | 0 mm | - | 246 W/m² | - |
| 1777813795 | 0° C | 67% | 1018.9 hPa | 0 mm | - | 132 W/m² | - |
| 1777813493 | 0° C | 68% | 1019.1 hPa | 0 mm | - | 153 W/m² | - |
| 1777813190 | -0.56° C | 68% | 1018.9 hPa | 0 mm | - | 123 W/m² | - |
| 1777812888 | -0.56° C | 69% | 1018.8 hPa | 0 mm | - | 81 W/m² | - |
| 1777812584 | -0.56° C | 70% | 1018.9 hPa | 0 mm | - | 72 W/m² | - |
| 1777812282 | -0.56° C | 71% | 1018.5 hPa | 0 mm | - | 112 W/m² | - |
| 1777811980 | -0.56° C | 71% | 1018.8 hPa | 0 mm | - | 94 W/m² | - |
| 1777811679 | -0.56° C | 73% | 1018.6 hPa | 0 mm | - | 95 W/m² | - |
| 1777811374 | -1.11° C | 74% | 1018.6 hPa | 0 mm | - | 59 W/m² | - |
| 1777811071 | -1.11° C | 75% | 1018.6 hPa | 0 mm | - | 48 W/m² | - |
| 1777810768 | -1.11° C | 77% | 1018.5 hPa | 0 mm | - | 65 W/m² | - |
| 1777810465 | -1.11° C | 78% | 1018.2 hPa | 0 mm | - | 50 W/m² | - |
| 1777810161 | -1.11° C | 79% | 1018.2 hPa | 0 mm | - | 43 W/m² | - |
| 1777809858 | -1.11° C | 81% | 1018.1 hPa | 0 mm | - | 31 W/m² | - |
| 1777809556 | -1.67° C | 81% | 1018.3 hPa | 0 mm | - | 30 W/m² | - |
| 1777809253 | -1.67° C | 83% | 1018.1 hPa | 0 mm | - | 30 W/m² | - |
| 1777808952 | -1.67° C | 83% | 1018.1 hPa | 0 mm | - | 28 W/m² | - |
| 1777808648 | -1.67° C | 84% | 1017.7 hPa | 0 mm | - | 25 W/m² | - |
| 1777808345 | -1.67° C | 84% | 1017.7 hPa | 0 mm | - | 23 W/m² | - |
* Rain latest hour (hover to see other rain measurements)
** Current wind speed in m/s (hover to see current wind gust speed)